Cedar Rapids, IA

2:18 AM CST on March 05, 2015 (GMT -0600)
Monticello Regional | Change Station
CLOSE
Current Station
Airport
Location: Monticello,
Elevation: 850 ft
Nearby Weather Stations
Active Advisory: Special Statement

Elev 850 ft 42.22 °N, 91.16 °W | Updated 23 minutes ago

Clear
Clear
-4 °F
Feels Like -15 °F
N
5
Wind Variable Wind from West

Today
High -- | Low -- °F
--% Chance of Precip.
Yesterday
High -- | Low -- °F
Precip. -- in
6:35 AM 6:01 PM
Full, 100% visible
Pressure 30.42 in
Visibility 10.0 miles
Clouds Clear
Windchill -15 °F
Dew Point -11 °F
Humidity 71%
Rainfall 0.00 in
Snow Depth Not available.
UV 0 out of 12
Pollen .20 out of 12
Air Quality Not available.
Flu Activity Not available.
METAR KMXO 050755Z AUTO 27004KT 10SM CLR M20/M24 A3042 RMK AO2

More Conditions Fewer Conditions

Pressure 30.42 in
Visibility 10.0 miles
Clouds Clear
Windchill -15 °F
Dew Point -11 °F
Humidity 71%
Rainfall 0.00 in
Snow Depth Not available.
UV 0 out of 12
Pollen .20 out of 12
Air Quality Not available.
Flu Activity Not available.
METAR KMXO 050755Z AUTO 27004KT 10SM CLR M20/M24 A3042 RMK AO2

More Conditions Fewer Conditions

10-Day Weather Forecast

Almanac

Astronomy

Mar. 05, 2015 Rise Set
Actual Time
Civil Twilight
Nautical Twilight
Astronomical Twilight
Moon
Length of Visible Light
Length of Day
Tomorrow will be .
, % of the Moon is Illuminated

Today's Extremes

State Highs State Lows

Community

WunderPhotos

Upload Photos

1,802,704 photos uploaded!

WunderBlogs® & News

Nearby

Air Quality

  Air Quality AQ Index Pollutant
Not available.

Snow Depth

Station Depth Elevation

Earthquake Activity

City Distance Mag. Time & Date
Minimum magnitude displayed is 2.5.

Coastal Water Temperatures

Place Temperature

Nearby Weather Stations

Special Statement
Statement as of 9:41 PM CST on March 04, 2015

... Bitterly cold overnight into early Thursday morning...

Another Arctic air mass will settle over the area overnight.
Expect temperatures to drop to 5 to 10 below zero. Northwest
winds around 5 mph will combine with the cold to produce wind
chills of 15 to around 20 below zero... through 9 am Thursday.

Wind chills of 20 below zero or colder can produce frostbite
within 30 minutes. Dress appropriately if venturing outside.

Rp Kinney